VY2CRA-4 Weather Reports


time (UTC)temp
C
wind
direction
speed
KPH
gust
KPH
rain 1hr
cm
rain 24hr
cm
rain mn
cm
humidity
%
barometer
mb
20260507200937 17 270 0.0 0.0 0.00 0.00 0.00 51 997.1
20260507194937 17 270 0.0 0.0 0.00 0.00 0.00 52 997.2
20260507190937 17 270 0.0 0.0 0.00 0.00 0.00 53 997.4
20260507184934 17 270 0.0 0.0 0.00 0.00 0.00 54 996.7
20260507180931 17 270 0.0 0.0 0.00 0.00 0.00 53 996.7
20260507172932 17 270 0.0 0.0 0.00 0.00 0.00 51 996.9
20260507164929 18 270 0.0 0.0 0.00 0.00 0.00 49 998.3
20260507162929 18 270 0.0 0.0 0.00 0.00 0.00 48 998.2
20260507160927 18 270 0.0 0.0 0.00 0.00 0.00 47 998.7
20260507154926 18 270 0.0 0.0 0.00 0.00 0.00 45 998.7
20260507152926 19 270 0.0 0.0 0.00 0.00 0.00 44 999.6
20260507144923 20 270 0.0 0.0 0.00 0.00 0.00 41 999.5
20260507142922 20 270 0.0 0.0 0.00 0.00 0.00 40 999.4
20260507140921 21 270 0.0 0.0 0.00 0.00 0.00 40 999.0
20260507134919 21 270 0.0 0.0 0.00 0.00 0.00 39 999.1
20260507132918 21 270 0.0 0.0 0.00 0.00 0.00 37 999.7
20260507130919 21 270 0.0 0.0 0.00 0.00 0.00 35 999.7
20260507124916 22 270 0.0 0.0 0.00 0.00 0.00 32 1000.0
20260507122915 23 270 0.0 0.0 0.00 0.00 0.00 28 1000.2
20260507120914 26 270 0.0 0.0 0.00 0.00 0.00 21 1000.1
20260507114913 27 270 0.0 0.0 0.00 0.00 0.00 17 1000.0
20260507112914 26 270 0.0 0.0 0.00 0.00 0.00 21 1000.5
20260507104910 18 270 0.0 0.0 0.00 0.00 0.00 47 1001.1
20260507102910 17 270 0.0 0.0 0.00 0.00 0.00 49 1001.5
20260507100909 16 270 0.0 0.0 0.00 0.00 0.00 50 1001.6
20260507094908 16 270 0.0 0.0 0.00 0.00 0.00 49 1001.6
20260507092907 16 270 0.0 0.0 0.00 0.00 0.00 48 1001.7
20260507090906 16 270 0.0 0.0 0.00 0.00 0.00 48 1001.8
20260507084905 16 270 0.0 0.0 0.00 0.00 0.00 47 1001.9
20260507082904 16 270 0.0 0.0 0.00 0.00 0.00 47 1002.2
20260507080903 16 270 0.0 0.0 0.00 0.00 0.00 47 1002.9
20260507074902 16 270 0.0 0.0 0.00 0.00 0.00 46 1003.5
20260507072901 16 270 0.0 0.0 0.00 0.00 0.00 46 1003.6
20260507070900 17 270 0.0 0.0 0.00 0.00 0.00 46 1004.2
20260507064859 17 270 0.0 0.0 0.00 0.00 0.00 44 1004.2
20260507062858 17 270 0.0 0.0 0.00 0.00 0.00 43 1005.2
20260507060858 17 270 0.0 0.0 0.00 0.00 0.00 43 1005.1
20260507054858 17 270 0.0 0.0 0.00 0.00 0.00 42 1005.8
20260507052856 17 270 0.0 0.0 0.00 0.00 0.00 42 1005.9
20260507050856 17 270 0.0 0.0 0.00 0.00 0.00 42 1006.3
20260507044854 18 270 0.0 0.0 0.00 0.00 0.00 41 1006.8
20260507042853 18 270 0.0 0.0 0.00 0.00 0.00 40 1007.1
20260507040852 18 270 0.0 0.0 0.00 0.00 0.00 39 1007.3
20260507034851 18 270 0.0 0.0 0.00 0.00 0.00 39 1007.0
20260507033025 19 270 0.0 0.0 0.00 0.00 0.00 38 1007.8
20260507032850 19 270 0.0 0.0 0.00 0.00 0.00 38 1007.8
20260507030849 19 270 0.0 0.0 0.00 0.00 0.00 38 1008.5
20260507024848 20 270 0.0 0.0 0.00 0.00 0.00 37 1008.8
20260507022847 20 270 0.0 0.0 0.00 0.00 0.00 36 1009.1
20260507020846 20 270 0.0 0.0 0.00 0.00 0.00 35 1009.4
20260507014845 21 270 0.0 0.0 0.00 0.00 0.00 34 1009.6
20260507012844 21 270 0.0 0.0 0.00 0.00 0.00 32 1010.0
20260507010844 22 270 0.0 0.0 0.00 0.00 0.00 29 1010.0
20260507004842 23 270 0.0 0.0 0.00 0.00 0.00 27 1010.2
20260507002842 24 270 0.0 0.0 0.00 0.00 0.00 23 1009.9
20260507000841 26 270 0.0 0.0 0.00 0.00 0.00 19 1009.7
20260506234840 28 270 0.0 0.0 0.00 0.00 0.00 13 1009.4
20260506232839 25 270 0.0 0.0 0.00 0.00 0.00 23 1009.5
20260506230839 22 270 0.0 0.0 0.00 0.00 0.00 28 1009.5
20260506224838 23 270 0.0 0.0 0.00 0.00 0.00 26 1009.5
20260506222838 23 270 0.0 0.0 0.00 0.00 0.00 24 1009.2
20260506220835 25 270 0.0 0.0 0.00 0.00 0.00 21 1009.1
20260506214834 25 270 0.0 0.0 0.00 0.00 0.00 19 1009.3
20260506212833 26 270 0.0 0.0 0.00 0.00 0.00 18 1008.9
20260506210832 26 270 0.0 0.0 0.00 0.00 0.00 17 1008.9
20260506202832 27 270 0.0 0.0 0.00 0.00 0.00 15 1008.7